SCP
0 0 0 0 0 0 0 0 0 0 0 0 0 0 0 0 0 0 0 0 0 0 0 0 0 0 0 0 0 0 0 0 0 0 0 0 0 0 0 0 0 0 0
0 0 0 0 0 0 0 0 0 0 0 0 0 0 0 0 0 0 0 0 0 0 0 0 0 0 0 0 0 0 0 0 0 0 0 0 0 0 0 0 0 0 0
0 0 0 0 0 0 0 0 0 0 0 0 0 0 0 0 0 0 0 0 0 0 0 0 0 0 0 0 0 0 0 0 0 0 0 0 0 0 0 0 0 0 0
0 0 0 0 0 0 0 0 0 0 0 0 0 0 0 0 0 0 0 0 0 0 0 0 0 0 0 0 0 0 0 0 0 0 0 0 0 0 0 0 0 -0 0
0 0 0 0 0 0 0 0 0 0 0 0 0 0 0 0 0 0 0 0 0 0 0 0 0 0 0 0 0 0 0 0 0 0 0 0 0 0 0 0 0 -0 0
0 0 0 0 0 0 0 0 0 0 0 0 0 0 0 0 0 0 0 0 0 0 0 0 0 0 0 0 0 0 0 0 0 0 0 0 0 0 0 0 0 0 -0
0 0 0 0 0 0 0 0 0 0 0 0 0 0 0 0 0 0 0 0 0 0 0 0 0 0 0 0 0 0 0 0 0 0 0 0 0 0 0 0 0 0 0
0 0 0 0 0 0 0 0 0 0 0 0 0 0 0 0 0 0 0 0 0 0 0 0 0 0 0 0 0 0 0 0 0 0 0 0 0 0 0 0 0 0 0
0 0 0 0 0 0 0 0 0 0 0 0 0 0 0 0 0 0 0 0 0 0 0 0 0 0 0 0 0 0 0 0 0 0 0 0 0 0 0 0 0 0 0
0 0 0 0 0 0 0 0 0 0 0 0 0 0 0 0 0 0 0 0 0 0 0 0 0 0 0 0 0 0 0 0 0 0 0 0 0 0 0 0 0 0 0
0 0 0 0 0 0 0 0 0 0 0 0 0 0 0 0 0 0 0 0 0 0 0 0 0 0 0 0 0 0 0 0 0 0 0 0 0 0 0 0 0 0 0
0 0 0 0 0 0 0 0 0 0 0 0 0 0 0 0 0 0 0 0 0 0 0 0 0 0 0 0 0 0 0 0 0 0 0 0 0 0 0 0 0 0 0
0 0 0 0 0 0 0 0 0 0 0 0 0 0 0 0 0 0 0 0 0 0 0 0 0 0 0 0 0 0 0 0 0 0 0 0 0 0 0 0 0 0 0
0 0 0 0 0 0 0 0 0 0 0 0 0 0 0 0 0 0 0 0 0 0 0 0 0 0 0 0 0 0 0 0 0 0 0 0 0 0 0 0 0 0 0
0 0 0 0 0 0 0 0 0 0 0 0 0 0 0 0 0 0 0 0 0 0 0 0 0 0 0 0 0 0 0 0 0 0 0 0 0 0 0 0 0 0 0
0 0 0 0 0 0 0 0 0 0 0 0 0 0 0 0 0 0 0 0 0 0 0 0 0 0 0 0 0 0 0 0 0 0 0 0 0 0 0 0 0 0 0
0 0 0 0 0 0 0 0 0 0 0 0 0 0 0 0 0 0 0 0 0 0 0 0 0 0 0 0 0 0 0 0 0 0 0 0 0 0 0 0 0 0 0
0 0 0 0 0 0 0 0 0 0 0 0 0 0 0 0 0 0 0 0 0 0 0 0 0 0 0 0 0 0 0 0 0 0 0 0 0 0 0 0 0 0 0
0 0 0 0 0 0 0 0 0 0 0 0 0 0 0 0 0 0 0 0 0 0 0 0 0 0 0 0 0 0 0 0 0 0 0 0 0 0 0 0 0 0 0
0 0 0 0 0 0 0 0 0 0 0 0 0 0 0 0 0 0 0 0 0 0 0 0 0 0 0 0 0 0 0 0 0 0 0 0 0 0 0 0 0 0 0
0 0 0 0 0 0 0 0 0 0 0 0 0 0 0 0 0 0 0 0 0 0 0 0 0 0 0 0 0 0 0 0 0 0 0 0 0 0 0 0 0 0 0
0 0 0 0 0 0 0 0 0 0 0 0 0 0 0 0 0 0 0 0 0 0 0 0 0 0 0 0 0 0 0 0 0 0 0 0 0 0 0 0 0 0 0
0 0 0 0 0 0 0 0 0 0 0 0 0 0 0 0 0 0 0 0 0 0 0 0 0 0 0 0 0 0 0 0 0 0 0 0 0 0 0 0 0 0 0
0 0 0 0 0 0 0 0 0 0 0 0 0 0 0 0 0 0 0 0 0 0 0 0 0 0 0 0 0 0 0 0 0 0 0 0 0 0 0 0 0 0 0
0 0 0 0 0 0 0 0 0 0 0 0 0 0 0 0 0 0 0 0 0 0 0 0 0 0 0 0 0 0 0 0 0 0 0 0 0 0 0 0 0 0 0
0 0 0 0 0 0 0 0 0 0 0 0 0 0 0 0 0 0 0 0 0 0 0 0 0 0 0 0 0 0 0 0 0 0 0 0 0 0 0 0 0 0 0
Wind_Speed_500mb
26 28 28 27 26 28 30 32 35 36 37 39 41 40 35 40 35 38 37 34 43 41 42 37 40 38 35 33 31 24 23 24 20 18 21 23 26 29 32 36 42 44 47
23 23 23 23 25 26 27 28 28 26 27 24 22 23 29 29 32 31 36 41 38 30 33 32 25 29 24 20 17 15 13 11 14 18 25 29 33 37 38 36 37 39 38
21 20 20 20 21 21 20 18 17 17 17 15 19 22 24 27 30 37 38 32 29 29 31 27 25 21 17 12 11 10 10 12 17 20 31 40 36 36 39 41 44 48 50
22 23 23 23 22 20 19 18 16 15 15 17 20 22 24 27 33 28 28 22 27 26 24 21 17 13 10 9 6 9 14 17 26 30 27 26 30 34 40 46 53 59 66
24 23 23 22 22 20 18 19 19 18 19 21 21 20 22 22 21 19 21 25 20 18 15 12 9 4 3 5 9 15 21 21 22 24 22 25 30 36 45 51 55 60 65
29 26 25 25 22 21 20 20 19 17 16 17 19 19 23 24 26 24 24 20 19 17 12 10 10 10 4 17 21 19 24 26 21 18 22 26 30 38 44 50 56 62 61
32 28 27 27 25 22 20 20 21 19 19 18 18 19 20 21 23 24 20 16 15 14 12 11 8 10 21 28 27 30 23 16 15 17 21 27 33 39 46 51 55 58 61
33 30 29 27 26 23 21 20 20 20 20 19 20 21 22 23 21 19 19 17 17 15 11 9 18 26 29 28 23 17 13 16 16 18 24 28 33 36 41 46 51 57 60
32 29 28 26 24 22 21 20 21 22 23 22 21 22 22 23 22 23 23 23 21 13 16 20 27 32 34 19 16 15 14 16 15 20 24 26 28 32 39 43 45 51 59
27 26 25 23 22 22 23 22 22 23 24 24 24 25 25 25 27 28 27 27 17 17 22 30 34 32 22 15 15 18 17 12 16 18 21 25 25 30 35 41 45 47 49
26 26 26 25 24 24 24 25 26 28 28 27 27 28 29 30 32 31 31 25 20 25 34 37 33 26 19 18 19 18 13 17 17 19 21 23 26 28 30 32 36 40 43
23 24 26 26 27 27 27 28 29 29 30 30 31 33 35 36 36 37 32 26 26 35 39 36 31 27 23 22 20 18 18 17 18 18 20 23 25 25 26 29 30 32 36
21 24 26 28 26 25 25 26 28 31 32 33 36 39 40 41 42 40 37 34 39 41 37 37 31 30 28 25 23 22 17 14 16 18 20 22 26 30 30 28 29 29 29
18 21 24 24 22 22 25 28 31 33 35 39 42 43 44 44 45 42 40 42 45 43 41 37 35 34 32 27 23 21 15 16 17 19 20 22 24 27 31 34 34 35 33
18 22 24 25 26 28 30 31 33 36 40 42 44 44 46 48 47 43 45 47 46 42 39 38 38 38 35 31 27 23 19 19 20 19 21 21 23 24 27 29 32 34 36
22 25 27 30 32 33 35 38 41 44 46 49 51 53 52 53 53 51 50 51 50 45 44 45 44 43 41 37 33 26 24 23 22 21 21 21 21 23 25 27 29 31 33
24 28 31 35 36 38 40 44 46 46 50 54 58 59 58 57 58 57 56 57 51 49 49 49 50 50 46 43 36 32 29 27 24 23 22 21 21 23 25 28 28 29 30
27 31 35 37 40 43 45 47 49 52 56 59 59 63 63 63 64 63 63 63 58 55 55 55 55 54 52 48 44 39 35 31 28 26 23 22 22 24 26 30 32 33 33
30 33 36 40 43 45 49 53 55 59 63 64 64 63 63 62 64 63 62 64 63 58 55 56 58 59 57 53 49 44 39 34 31 30 26 25 25 27 30 32 33 35 36
37 40 42 45 46 49 53 57 60 64 67 69 71 68 69 68 68 69 69 72 71 62 58 60 62 62 61 59 54 50 45 40 35 34 31 29 29 30 33 34 35 35 36
43 46 49 52 54 54 55 58 62 66 69 73 76 72 73 79 80 82 83 84 77 68 59 61 64 65 64 62 58 55 49 46 41 39 36 33 32 34 35 35 35 36 36
46 49 52 55 56 59 59 61 64 68 73 77 77 78 74 82 90 90 90 92 90 81 76 68 69 68 66 64 63 58 56 52 48 44 40 37 35 36 37 37 35 36 38
50 53 55 57 60 63 66 67 70 71 76 79 80 81 85 82 92 96 93 94 95 92 83 77 77 74 70 68 67 63 61 55 50 50 44 41 38 38 39 38 37 37 38
51 53 55 58 61 65 69 69 70 72 75 78 81 82 85 88 87 91 96 92 94 90 82 81 81 73 70 72 70 67 63 59 58 52 49 45 41 40 41 40 39 38 39
56 58 61 62 64 63 67 73 73 72 73 76 78 77 80 83 84 83 86 88 89 85 88 85 83 76 77 72 70 68 64 63 60 55 53 48 44 43 43 42 40 39 40
60 61 62 63 65 66 67 71 73 73 74 76 77 77 76 77 78 77 78 78 81 82 85 89 84 79 75 72 70 70 67 65 61 57 55 52 47 44 44 43 42 41 41
Wind_Direction_500mb
208 217 223 230 239 246 250 251 251 251 248 247 252 248 235 233 243 251 249 258 267 271 259 266 271 262 260 268 264 261 265 278 283 295 295 307 309 313 316 319 322 326 329
200 210 218 227 234 239 241 240 239 240 241 233 226 236 236 238 242 243 247 259 261 265 262 255 244 254 249 245 259 278 290 309 313 317 322 322 323 326 328 329 331 333 337
205 215 222 228 233 239 242 240 232 225 223 222 226 233 240 245 248 255 250 253 253 246 249 245 239 235 254 266 273 289 295 306 316 324 324 321 321 323 331 333 334 339 347
212 216 218 221 224 231 236 230 219 214 223 228 236 240 247 245 251 243 214 230 245 241 233 240 250 262 265 266 279 297 314 323 320 314 311 310 323 327 332 338 343 343 343
225 224 226 223 223 224 229 236 223 218 223 228 232 237 238 235 213 232 250 253 244 247 255 253 246 228 131 327 338 318 312 301 294 305 324 325 323 328 340 341 339 337 338
235 233 232 230 230 229 231 233 229 230 218 225 228 237 244 248 256 262 261 252 249 238 225 209 185 190 201 313 303 281 282 287 302 314 314 318 333 335 333 337 336 337 338
230 230 232 230 226 228 231 229 231 219 222 225 231 238 244 250 250 250 239 220 206 194 189 192 198 282 300 304 283 278 289 299 294 304 317 328 330 334 334 334 334 331 329
229 228 229 231 231 232 232 234 234 231 231 231 233 239 236 227 219 208 203 197 188 185 184 250 279 287 287 281 277 274 281 283 293 312 322 324 327 330 333 332 330 328 328
225 228 232 230 230 232 235 237 237 236 234 233 234 231 227 220 210 202 194 191 189 212 269 277 291 285 286 265 261 261 262 275 295 323 325 329 330 331 331 329 329 335 335
221 223 228 231 230 231 230 232 234 234 234 231 227 223 218 214 208 201 201 194 227 264 284 287 280 276 264 261 260 263 259 283 317 316 328 331 333 333 332 333 336 339 339
213 220 222 223 224 227 230 230 232 231 229 226 225 224 218 213 208 210 205 223 264 285 286 275 268 259 253 255 256 261 292 306 305 327 328 330 332 330 332 336 338 339 338
209 218 222 222 222 224 225 228 229 230 229 227 226 224 220 216 215 212 224 249 278 288 277 260 253 254 252 256 266 277 289 303 322 322 328 330 326 329 337 341 343 343 338
205 214 222 224 223 224 228 233 236 237 234 234 232 228 224 223 222 228 242 266 285 285 263 249 249 252 257 260 262 275 289 308 309 316 321 326 330 333 336 340 340 343 342
212 222 229 234 237 240 240 241 241 242 243 242 236 231 229 231 233 243 260 279 284 273 252 247 246 248 250 251 255 263 277 289 302 311 320 327 330 330 331 334 340 343 344
237 243 247 250 251 250 250 251 252 250 246 244 244 239 238 240 241 252 270 276 273 260 253 249 245 243 243 246 249 258 269 282 292 305 313 319 322 324 325 333 341 345 348
257 262 262 259 257 257 258 257 254 252 246 241 240 238 241 241 244 254 270 272 267 255 255 251 247 244 242 242 246 249 260 270 281 292 299 307 317 322 326 332 341 344 345
261 263 263 262 264 265 263 261 261 258 254 251 249 248 247 248 249 260 268 272 258 255 254 251 247 243 241 241 242 246 252 260 269 278 291 301 310 315 321 325 331 332 334
266 267 268 269 268 265 263 262 261 259 258 257 254 253 252 254 253 262 266 265 252 254 256 251 247 243 240 239 239 242 246 253 261 271 280 290 299 304 310 313 318 320 324
277 277 275 271 268 267 264 262 261 259 258 258 258 255 256 256 254 262 259 254 254 257 253 248 245 243 240 239 239 242 245 250 257 264 272 281 288 296 301 304 307 309 313
284 284 282 281 278 274 270 267 265 264 263 261 260 258 256 254 257 258 253 253 255 255 252 250 246 243 242 241 240 242 242 247 251 257 262 271 280 287 292 296 300 303 307
285 284 284 283 282 281 278 274 271 270 270 269 267 264 261 259 261 260 260 260 259 255 255 254 249 246 245 243 243 245 246 248 249 252 257 265 274 281 286 291 294 298 301
288 286 284 283 282 281 280 279 277 275 272 270 270 269 265 263 264 264 263 263 262 254 254 252 250 248 247 246 247 246 248 248 249 251 255 262 270 276 281 286 289 292 294
289 288 288 287 286 284 281 281 280 279 278 276 274 272 271 266 268 269 267 267 264 255 253 251 250 249 248 248 248 248 249 250 250 250 254 260 265 272 276 280 283 285 287
291 290 289 287 286 286 285 283 281 280 280 280 279 277 275 273 269 271 272 269 267 259 252 250 248 248 248 247 247 247 248 248 249 250 253 257 263 267 272 274 276 279 281
290 290 289 288 287 286 287 286 285 284 283 283 282 280 280 277 275 273 272 272 267 260 251 245 246 245 244 245 246 247 247 247 248 249 251 255 259 263 267 270 272 273 276
288 287 286 284 284 285 285 285 285 286 285 285 284 283 281 281 281 279 275 271 266 261 255 252 248 244 247 245 244 245 245 246 247 248 249 252 256 261 264 266 267 269 271
Wind_Speed_850mb
26 28 28 27 26 28 30 32 35 36 37 39 41 40 35 40 35 38 37 34 43 41 42 37 40 38 35 33 31 24 23 24 20 18 21 23 26 29 32 36 42 44 47
23 23 23 23 25 26 27 28 28 26 27 24 22 23 29 29 32 31 36 41 38 30 33 32 25 29 24 20 17 15 13 11 14 18 25 29 33 37 38 36 37 39 38
21 20 20 20 21 21 20 18 17 17 17 15 19 22 24 27 30 37 38 32 29 29 31 27 25 21 17 12 11 10 10 12 17 20 31 40 36 36 39 41 44 48 50
22 23 23 23 22 20 19 18 16 15 15 17 20 22 24 27 33 28 28 22 27 26 24 21 17 13 10 9 6 9 14 17 26 30 27 26 30 34 40 46 53 59 66
24 23 23 22 22 20 18 19 19 18 19 21 21 20 22 22 21 19 21 25 20 18 15 12 9 4 3 5 9 15 21 21 22 24 22 25 30 36 45 51 55 60 65
29 26 25 25 22 21 20 20 19 17 16 17 19 19 23 24 26 24 24 20 19 17 12 10 10 10 4 17 21 19 24 26 21 18 22 26 30 38 44 50 56 62 61
32 28 27 27 25 22 20 20 21 19 19 18 18 19 20 21 23 24 20 16 15 14 12 11 8 10 21 28 27 30 23 16 15 17 21 27 33 39 46 51 55 58 61
33 30 29 27 26 23 21 20 20 20 20 19 20 21 22 23 21 19 19 17 17 15 11 9 18 26 29 28 23 17 13 16 16 18 24 28 33 36 41 46 51 57 60
32 29 28 26 24 22 21 20 21 22 23 22 21 22 22 23 22 23 23 23 21 13 16 20 27 32 34 19 16 15 14 16 15 20 24 26 28 32 39 43 45 51 59
27 26 25 23 22 22 23 22 22 23 24 24 24 25 25 25 27 28 27 27 17 17 22 30 34 32 22 15 15 18 17 12 16 18 21 25 25 30 35 41 45 47 49
26 26 26 25 24 24 24 25 26 28 28 27 27 28 29 30 32 31 31 25 20 25 34 37 33 26 19 18 19 18 13 17 17 19 21 23 26 28 30 32 36 40 43
23 24 26 26 27 27 27 28 29 29 30 30 31 33 35 36 36 37 32 26 26 35 39 36 31 27 23 22 20 18 18 17 18 18 20 23 25 25 26 29 30 32 36
21 24 26 28 26 25 25 26 28 31 32 33 36 39 40 41 42 40 37 34 39 41 37 37 31 30 28 25 23 22 17 14 16 18 20 22 26 30 30 28 29 29 29
18 21 24 24 22 22 25 28 31 33 35 39 42 43 44 44 45 42 40 42 45 43 41 37 35 34 32 27 23 21 15 16 17 19 20 22 24 27 31 34 34 35 33
18 22 24 25 26 28 30 31 33 36 40 42 44 44 46 48 47 43 45 47 46 42 39 38 38 38 35 31 27 23 19 19 20 19 21 21 23 24 27 29 32 34 36
22 25 27 30 32 33 35 38 41 44 46 49 51 53 52 53 53 51 50 51 50 45 44 45 44 43 41 37 33 26 24 23 22 21 21 21 21 23 25 27 29 31 33
24 28 31 35 36 38 40 44 46 46 50 54 58 59 58 57 58 57 56 57 51 49 49 49 50 50 46 43 36 32 29 27 24 23 22 21 21 23 25 28 28 29 30
27 31 35 37 40 43 45 47 49 52 56 59 59 63 63 63 64 63 63 63 58 55 55 55 55 54 52 48 44 39 35 31 28 26 23 22 22 24 26 30 32 33 33
30 33 36 40 43 45 49 53 55 59 63 64 64 63 63 62 64 63 62 64 63 58 55 56 58 59 57 53 49 44 39 34 31 30 26 25 25 27 30 32 33 35 36
37 40 42 45 46 49 53 57 60 64 67 69 71 68 69 68 68 69 69 72 71 62 58 60 62 62 61 59 54 50 45 40 35 34 31 29 29 30 33 34 35 35 36
43 46 49 52 54 54 55 58 62 66 69 73 76 72 73 79 80 82 83 84 77 68 59 61 64 65 64 62 58 55 49 46 41 39 36 33 32 34 35 35 35 36 36
46 49 52 55 56 59 59 61 64 68 73 77 77 78 74 82 90 90 90 92 90 81 76 68 69 68 66 64 63 58 56 52 48 44 40 37 35 36 37 37 35 36 38
50 53 55 57 60 63 66 67 70 71 76 79 80 81 85 82 92 96 93 94 95 92 83 77 77 74 70 68 67 63 61 55 50 50 44 41 38 38 39 38 37 37 38
51 53 55 58 61 65 69 69 70 72 75 78 81 82 85 88 87 91 96 92 94 90 82 81 81 73 70 72 70 67 63 59 58 52 49 45 41 40 41 40 39 38 39
56 58 61 62 64 63 67 73 73 72 73 76 78 77 80 83 84 83 86 88 89 85 88 85 83 76 77 72 70 68 64 63 60 55 53 48 44 43 43 42 40 39 40
60 61 62 63 65 66 67 71 73 73 74 76 77 77 76 77 78 77 78 78 81 82 85 89 84 79 75 72 70 70 67 65 61 57 55 52 47 44 44 43 42 41 41
Wind_Direction_850mb
208 217 223 230 239 246 250 251 251 251 248 247 252 248 235 233 243 251 249 258 267 271 259 266 271 262 260 268 264 261 265 278 283 295 295 307 309 313 316 319 322 326 329
200 210 218 227 234 239 241 240 239 240 241 233 226 236 236 238 242 243 247 259 261 265 262 255 244 254 249 245 259 278 290 309 313 317 322 322 323 326 328 329 331 333 337
205 215 222 228 233 239 242 240 232 225 223 222 226 233 240 245 248 255 250 253 253 246 249 245 239 235 254 266 273 289 295 306 316 324 324 321 321 323 331 333 334 339 347
212 216 218 221 224 231 236 230 219 214 223 228 236 240 247 245 251 243 214 230 245 241 233 240 250 262 265 266 279 297 314 323 320 314 311 310 323 327 332 338 343 343 343
225 224 226 223 223 224 229 236 223 218 223 228 232 237 238 235 213 232 250 253 244 247 255 253 246 228 131 327 338 318 312 301 294 305 324 325 323 328 340 341 339 337 338
235 233 232 230 230 229 231 233 229 230 218 225 228 237 244 248 256 262 261 252 249 238 225 209 185 190 201 313 303 281 282 287 302 314 314 318 333 335 333 337 336 337 338
230 230 232 230 226 228 231 229 231 219 222 225 231 238 244 250 250 250 239 220 206 194 189 192 198 282 300 304 283 278 289 299 294 304 317 328 330 334 334 334 334 331 329
229 228 229 231 231 232 232 234 234 231 231 231 233 239 236 227 219 208 203 197 188 185 184 250 279 287 287 281 277 274 281 283 293 312 322 324 327 330 333 332 330 328 328
225 228 232 230 230 232 235 237 237 236 234 233 234 231 227 220 210 202 194 191 189 212 269 277 291 285 286 265 261 261 262 275 295 323 325 329 330 331 331 329 329 335 335
221 223 228 231 230 231 230 232 234 234 234 231 227 223 218 214 208 201 201 194 227 264 284 287 280 276 264 261 260 263 259 283 317 316 328 331 333 333 332 333 336 339 339
213 220 222 223 224 227 230 230 232 231 229 226 225 224 218 213 208 210 205 223 264 285 286 275 268 259 253 255 256 261 292 306 305 327 328 330 332 330 332 336 338 339 338
209 218 222 222 222 224 225 228 229 230 229 227 226 224 220 216 215 212 224 249 278 288 277 260 253 254 252 256 266 277 289 303 322 322 328 330 326 329 337 341 343 343 338
205 214 222 224 223 224 228 233 236 237 234 234 232 228 224 223 222 228 242 266 285 285 263 249 249 252 257 260 262 275 289 308 309 316 321 326 330 333 336 340 340 343 342
212 222 229 234 237 240 240 241 241 242 243 242 236 231 229 231 233 243 260 279 284 273 252 247 246 248 250 251 255 263 277 289 302 311 320 327 330 330 331 334 340 343 344
237 243 247 250 251 250 250 251 252 250 246 244 244 239 238 240 241 252 270 276 273 260 253 249 245 243 243 246 249 258 269 282 292 305 313 319 322 324 325 333 341 345 348
257 262 262 259 257 257 258 257 254 252 246 241 240 238 241 241 244 254 270 272 267 255 255 251 247 244 242 242 246 249 260 270 281 292 299 307 317 322 326 332 341 344 345
261 263 263 262 264 265 263 261 261 258 254 251 249 248 247 248 249 260 268 272 258 255 254 251 247 243 241 241 242 246 252 260 269 278 291 301 310 315 321 325 331 332 334
266 267 268 269 268 265 263 262 261 259 258 257 254 253 252 254 253 262 266 265 252 254 256 251 247 243 240 239 239 242 246 253 261 271 280 290 299 304 310 313 318 320 324
277 277 275 271 268 267 264 262 261 259 258 258 258 255 256 256 254 262 259 254 254 257 253 248 245 243 240 239 239 242 245 250 257 264 272 281 288 296 301 304 307 309 313
284 284 282 281 278 274 270 267 265 264 263 261 260 258 256 254 257 258 253 253 255 255 252 250 246 243 242 241 240 242 242 247 251 257 262 271 280 287 292 296 300 303 307
285 284 284 283 282 281 278 274 271 270 270 269 267 264 261 259 261 260 260 260 259 255 255 254 249 246 245 243 243 245 246 248 249 252 257 265 274 281 286 291 294 298 301
288 286 284 283 282 281 280 279 277 275 272 270 270 269 265 263 264 264 263 263 262 254 254 252 250 248 247 246 247 246 248 248 249 251 255 262 270 276 281 286 289 292 294
289 288 288 287 286 284 281 281 280 279 278 276 274 272 271 266 268 269 267 267 264 255 253 251 250 249 248 248 248 248 249 250 250 250 254 260 265 272 276 280 283 285 287
291 290 289 287 286 286 285 283 281 280 280 280 279 277 275 273 269 271 272 269 267 259 252 250 248 248 248 247 247 247 248 248 249 250 253 257 263 267 272 274 276 279 281
290 290 289 288 287 286 287 286 285 284 283 283 282 280 280 277 275 273 272 272 267 260 251 245 246 245 244 245 246 247 247 247 248 249 251 255 259 263 267 270 272 273 276
288 287 286 284 284 285 285 285 285 286 285 285 284 283 281 281 281 279 275 271 266 261 255 252 248 244 247 245 244 245 245 246 247 248 249 252 256 261 264 266 267 269 271